"Period start","avg(HW err(1)/warn(2) (#))","avg(Visibility (m))","avg(Weather code (#))","avg(Precip intensity (mm/h))","min(HW err(1)/warn(2) (#))","max(HW err(1)/warn(2) (#))","std(HW err(1)/warn(2) (#))","med(HW err(1)/warn(2) (#))","min(Visibility (m))","max(Visibility (m))","std(Visibility (m))","med(Visibility (m))","min(Weather code (#))","max(Weather code (#))","std(Weather code (#))","med(Weather code (#))","min(Precip intensity (mm/h))","max(Precip intensity (mm/h))","std(Precip intensity (mm/h))","med(Precip intensity (mm/h))"
2013-08-07 00:00:00,2,49474,0,0.00,2,2,0,2,46041,50000,1208,50000,0,0,0,0,0.00,0.00,0.00,0.00
2013-08-07 00:10:00,2,49028,0,0.00,2,2,0,2,46295,50000,1401,49969,0,0,0,0,0.00,0.00,0.00,0.00
2013-08-07 00:20:00,2,44291,0,0.00,2,2,0,2,34519,50000,5229,44389,0,0,0,0,0.00,0.00,0.00,0.00
2013-08-07 00:30:00,2,43470,0,0.00,2,2,0,2,25719,50000,8231,46578,0,0,0,0,0.00,0.00,0.00,0.00
2013-08-07 00:40:00,2,45955,0,0.00,2,2,0,2,36762,50000,4345,46530,0,0,0,0,0.00,0.00,0.00,0.00
2013-08-07 00:50:00,2,47533,0,0.00,2,2,0,2,40470,50000,3150,49139,0,0,0,0,0.00,0.00,0.00,0.00
2013-08-07 01:00:00,2,46599,0,0.00,2,2,0,2,38817,50000,3679,47374,0,0,0,0,0.00,0.00,0.00,0.00
2013-08-07 01:10:00,2,47115,0,0.00,2,2,0,2,35658,50000,5199,50000,0,0,0,0,0.00,0.00,0.00,0.00
2013-08-07 01:20:00,2,43147,0,0.00,2,2,0,2,36731,50000,4668,42476,0,0,0,0,0.00,0.00,0.00,0.00
2013-08-07 01:30:00,2,47529,0,0.00,2,2,0,2,37819,50000,4081,50000,0,0,0,0,0.00,0.00,0.00,0.00
2013-08-07 01:40:00,2,46596,0,0.00,2,2,0,2,33321,50000,6362,50000,0,0,0,0,0.00,0.00,0.00,0.00
2013-08-07 01:50:00,2,38000,0,0.00,2,2,0,2,17793,50000,11287,39784,0,0,0,0,0.00,0.00,0.00,0.00
2013-08-07 02:00:00,2,47708,0,0.00,2,2,0,2,41520,50000,2866,49540,0,0,0,0,0.00,0.00,0.00,0.00
2013-08-07 02:10:00,2,46965,0,0.00,2,2,0,2,38064,50000,3971,49200,0,0,0,0,0.00,0.00,0.00,0.00
2013-08-07 02:20:00,1,45606,0,0.00,0,2,1,0,31131,50000,6560,50000,0,0,0,0,0.00,0.00,0.00,0.00
2013-08-07 02:30:00,2,47025,0,0.00,0,2,1,2,38556,50000,4284,49966,0,0,0,0,0.00,0.00,0.00,0.00
2013-08-07 02:40:00,2,48090,0,0.00,2,2,0,2,42222,50000,2672,49555,0,0,0,0,0.00,0.00,0.00,0.00
2013-08-07 02:50:00,2,48949,0,0.00,0,2,1,2,44237,50000,1691,49674,0,0,0,0,0.00,0.00,0.00,0.00
2013-08-07 03:00:00,2,49215,0,0.00,2,2,0,2,46380,50000,1176,50000,0,0,0,0,0.00,0.00,0.00,0.00
2013-08-07 03:10:00,2,40925,0,0.00,2,2,0,2,33469,50000,4093,40194,0,0,0,0,0.00,0.00,0.00,0.00
2013-08-07 03:20:00,2,44444,0,0.00,2,2,0,2,33669,50000,4680,44746,0,0,0,0,0.00,0.00,0.00,0.00
2013-08-07 03:30:00,2,45432,0,0.00,2,2,0,2,34616,50000,5134,46966,0,0,0,0,0.00,0.00,0.00,0.00
2013-08-07 03:40:00,2,47593,0,0.00,2,2,0,2,42003,50000,2734,48540,0,0,0,0,0.00,0.00,0.00,0.00
2013-08-07 03:50:00,2,47950,0,0.00,2,2,0,2,43705,50000,2389,49255,0,0,0,0,0.00,0.00,0.00,0.00
2013-08-07 04:00:00,2,50000,0,0.00,2,2,0,2,50000,50000,0,50000,0,0,0,0,0.00,0.00,0.00,0.00
2013-08-07 04:10:00,2,47548,0,0.00,2,2,0,2,43208,50000,2583,48653,0,0,0,0,0.00,0.00,0.00,0.00
2013-08-07 04:20:00,2,42689,0,0.00,2,2,0,2,34752,50000,5196,43135,0,0,0,0,0.00,0.00,0.00,0.00
2013-08-07 04:30:00,2,41606,0,0.00,2,2,0,2,31627,50000,5577,41578,0,0,0,0,0.00,0.00,0.00,0.00
2013-08-07 04:40:00,2,44933,0,0.00,2,2,0,2,38129,50000,4453,45031,0,0,0,0,0.00,0.00,0.00,0.00
2013-08-07 04:50:00,2,46351,0,0.00,2,2,0,2,37673,50000,4467,48786,0,0,0,0,0.00,0.00,0.00,0.00
2013-08-07 05:00:00,2,49010,0,0.00,2,2,0,2,43342,50000,2009,50000,0,0,0,0,0.00,0.00,0.00,0.00
2013-08-07 05:10:00,2,47076,0,0.00,2,2,0,2,39824,50000,3392,48484,0,0,0,0,0.00,0.00,0.00,0.00
2013-08-07 05:20:00,2,49351,0,0.00,2,2,0,2,47088,50000,1071,50000,0,0,0,0,0.00,0.00,0.00,0.00
2013-08-07 05:30:00,2,49223,0,0.00,2,2,0,2,46644,50000,1226,50000,0,0,0,0,0.00,0.00,0.00,0.00
2013-08-07 05:40:00,2,48488,0,0.00,2,2,0,2,41752,50000,2558,49972,0,0,0,0,0.00,0.00,0.00,0.00
2013-08-07 05:50:00,2,49321,0,0.00,2,2,0,2,46147,50000,1344,50000,0,0,0,0,0.00,0.00,0.00,0.00
2013-08-07 06:00:00,2,49418,0,0.00,2,2,0,2,46887,50000,939,50000,0,0,0,0,0.00,0.00,0.00,0.00
2013-08-07 06:10:00,2,49300,0,0.00,2,2,0,2,46130,50000,1283,50000,0,0,0,0,0.00,0.00,0.00,0.00
2013-08-07 06:20:00,2,49307,0,0.00,2,2,0,2,44823,50000,1557,50000,0,0,0,0,0.00,0.00,0.00,0.00
2013-08-07 06:30:00,2,40430,0,0.00,2,2,0,2,12612,50000,13071,47825,0,0,0,0,0.00,0.00,0.00,0.00
2013-08-07 06:40:00,2,48660,0,0.00,2,2,0,2,39581,50000,3118,50000,0,0,0,0,0.00,0.00,0.00,0.00
2013-08-07 06:50:00,2,50000,0,0.00,2,2,0,2,50000,50000,0,50000,0,0,0,0,0.00,0.00,0.00,0.00
2013-08-07 07:00:00,2,48998,0,0.00,2,2,0,2,45082,50000,1712,50000,0,0,0,0,0.00,0.00,0.00,0.00
2013-08-07 07:10:00,2,47455,0,0.00,2,2,0,2,33041,50000,5214,50000,0,0,0,0,0.00,0.00,0.00,0.00
2013-08-07 07:20:00,2,49639,0,0.00,2,2,0,2,47569,50000,774,50000,0,0,0,0,0.00,0.00,0.00,0.00
2013-08-07 07:30:00,2,44546,0,0.00,2,2,0,2,25385,50000,7361,47986,0,0,0,0,0.00,0.00,0.00,0.00
2013-08-07 07:40:00,2,49038,0,0.00,2,2,0,2,43710,50000,1894,50000,0,0,0,0,0.00,0.00,0.00,0.00
2013-08-07 07:50:00,2,49730,0,0.00,2,2,0,2,48048,50000,580,50000,0,0,0,0,0.00,0.00,0.00,0.00
2013-08-07 08:00:00,2,49918,0,0.00,2,2,0,2,49567,50000,164,50000,0,0,0,0,0.00,0.00,0.00,0.00
2013-08-07 08:10:00,2,49053,0,0.00,2,2,0,2,44458,50000,1648,49788,0,0,0,0,0.00,0.00,0.00,0.00
2013-08-07 08:20:00,2,43373,0,0.00,2,2,0,2,19746,50000,11374,50000,0,0,0,0,0.00,0.00,0.00,0.00
2013-08-07 08:30:00,2,49648,0,0.00,2,2,0,2,47129,50000,862,50000,0,0,0,0,0.00,0.00,0.00,0.00
2013-08-07 08:40:00,2,49769,0,0.00,2,2,0,2,47686,50000,694,50000,0,0,0,0,0.00,0.00,0.00,0.00
2013-08-07 08:50:00,2,49627,0,0.00,2,2,0,2,46846,50000,943,50000,0,0,0,0,0.00,0.00,0.00,0.00
2013-08-07 09:00:00,2,49868,0,0.00,2,2,0,2,48678,50000,397,50000,0,0,0,0,0.00,0.00,0.00,0.00
2013-08-07 09:10:00,2,48876,0,0.00,0,2,1,2,43157,50000,2213,50000,0,0,0,0,0.00,0.00,0.00,0.00
2013-08-07 09:20:00,2,50000,0,0.00,0,2,1,2,50000,50000,0,50000,0,0,0,0,0.00,0.00,0.00,0.00
2013-08-07 09:30:00,2,49938,0,0.00,0,2,1,2,49378,50000,187,50000,0,0,0,0,0.00,0.00,0.00,0.00
2013-08-07 09:40:00,0,49428,0,0.00,0,0,0,0,46024,50000,1182,50000,0,0,0,0,0.00,0.00,0.00,0.00
2013-08-07 09:50:00,0,50000,0,0.00,0,0,0,0,50000,50000,0,50000,0,0,0,0,0.00,0.00,0.00,0.00
2013-08-07 10:00:00,0,48966,0,0.00,0,0,0,0,42259,50000,2366,50000,0,0,0,0,0.00,0.00,0.00,0.00
2013-08-07 10:10:00,0,49724,0,0.00,0,0,0,0,47244,50000,827,50000,0,0,0,0,0.00,0.00,0.00,0.00
2013-08-07 10:20:00,0,49990,0,0.00,0,0,0,0,49903,50000,29,50000,0,0,0,0,0.00,0.00,0.00,0.00
2013-08-07 10:30:00,0,49740,0,0.00,0,0,0,0,47403,50000,779,50000,0,0,0,0,0.00,0.00,0.00,0.00
2013-08-07 10:40:00,0,50000,0,0.00,0,0,0,0,50000,50000,0,50000,0,0,0,0,0.00,0.00,0.00,0.00
2013-08-07 10:50:00,0,42674,0,0.00,0,0,0,0,10412,50000,13153,50000,0,0,0,0,0.00,0.00,0.00,0.00
2013-08-07 11:00:00,0,50000,0,0.00,0,0,0,0,50000,50000,0,50000,0,0,0,0,0.00,0.00,0.00,0.00
2013-08-07 11:10:00,0,50000,0,0.00,0,0,0,0,50000,50000,0,50000,0,0,0,0,0.00,0.00,0.00,0.00
2013-08-07 11:20:00,0,50000,0,0.00,0,2,1,0,50000,50000,0,50000,0,0,0,0,0.00,0.00,0.00,0.00
2013-08-07 11:30:00,1,49390,0,0.00,0,2,1,2,45945,50000,1251,50000,0,0,0,0,0.00,0.00,0.00,0.00
2013-08-07 11:40:00,2,19483,54,0.80,0,2,1,2,12609,38809,8119,16037,52,61,4,52,0.00,2.80,0.87,0.43
2013-08-07 11:50:00,2,47481,5,0.00,2,2,0,2,40067,50000,3467,49910,0,52,16,0,0.00,0.00,0.00,0.00
2013-08-07 12:00:00,2,49367,0,0.00,0,2,1,2,46022,50000,1300,50000,0,0,0,0,0.00,0.00,0.00,0.00
2013-08-07 12:10:00,2,37402,0,0.00,2,2,0,2,14725,50000,15556,50000,0,0,0,0,0.00,0.00,0.00,0.00
2013-08-07 12:20:00,2,36207,0,0.00,2,2,0,2,25252,47147,7765,37414,0,0,0,0,0.00,0.00,0.00,0.00
2013-08-07 12:30:00,2,49716,0,0.00,2,2,0,2,47162,50000,851,50000,0,0,0,0,0.00,0.00,0.00,0.00
2013-08-07 12:40:00,2,50000,0,0.00,2,2,0,2,50000,50000,0,50000,0,0,0,0,0.00,0.00,0.00,0.00
2013-08-07 12:50:00,2,50000,0,0.00,2,2,0,2,50000,50000,0,50000,0,0,0,0,0.00,0.00,0.00,0.00
2013-08-07 13:00:00,2,49947,0,0.00,2,2,0,2,49470,50000,159,50000,0,0,0,0,0.00,0.00,0.00,0.00
2013-08-07 13:10:00,2,48460,18,0.01,2,2,0,2,45239,50000,1758,49442,0,61,28,0,0.00,0.10,0.03,0.00
2013-08-07 13:20:00,2,49129,0,0.00,2,2,0,2,43918,50000,1845,50000,0,0,0,0,0.00,0.00,0.00,0.00
2013-08-07 13:30:00,2,49975,0,0.00,2,2,0,2,49751,50000,75,50000,0,0,0,0,0.00,0.00,0.00,0.00
2013-08-07 13:40:00,2,50000,0,0.00,2,2,0,2,50000,50000,0,50000,0,0,0,0,0.00,0.00,0.00,0.00
2013-08-07 13:50:00,2,50000,0,0.00,2,2,0,2,50000,50000,0,50000,0,0,0,0,0.00,0.00,0.00,0.00
2013-08-07 14:00:00,2,50000,0,0.00,2,2,0,2,50000,50000,0,50000,0,0,0,0,0.00,0.00,0.00,0.00
2013-08-07 14:10:00,2,50000,0,0.00,2,2,0,2,50000,50000,0,50000,0,0,0,0,0.00,0.00,0.00,0.00
2013-08-07 14:20:00,2,50000,0,0.00,2,2,0,2,50000,50000,0,50000,0,0,0,0,0.00,0.00,0.00,0.00
2013-08-07 14:30:00,2,50000,0,0.00,2,2,0,2,50000,50000,0,50000,0,0,0,0,0.00,0.00,0.00,0.00
2013-08-07 14:40:00,2,50000,0,0.00,2,2,0,2,50000,50000,0,50000,0,0,0,0,0.00,0.00,0.00,0.00
2013-08-07 14:50:00,2,50000,0,0.00,2,2,0,2,50000,50000,0,50000,0,0,0,0,0.00,0.00,0.00,0.00
2013-08-07 15:00:00,2,50000,0,0.00,2,2,0,2,50000,50000,0,50000,0,0,0,0,0.00,0.00,0.00,0.00
2013-08-07 15:10:00,2,50000,0,0.00,2,2,0,2,50000,50000,0,50000,0,0,0,0,0.00,0.00,0.00,0.00
2013-08-07 15:20:00,2,50000,0,0.00,2,2,0,2,50000,50000,0,50000,0,0,0,0,0.00,0.00,0.00,0.00
2013-08-07 15:30:00,2,50000,0,0.00,2,2,0,2,50000,50000,0,50000,0,0,0,0,0.00,0.00,0.00,0.00
2013-08-07 15:40:00,2,50000,0,0.00,2,2,0,2,50000,50000,0,50000,0,0,0,0,0.00,0.00,0.00,0.00
2013-08-07 15:50:00,2,50000,0,0.00,2,2,0,2,50000,50000,0,50000,0,0,0,0,0.00,0.00,0.00,0.00
2013-08-07 16:00:00,2,50000,0,0.00,2,2,0,2,50000,50000,0,50000,0,0,0,0,0.00,0.00,0.00,0.00
2013-08-07 16:10:00,2,50000,0,0.00,2,2,0,2,50000,50000,0,50000,0,0,0,0,0.00,0.00,0.00,0.00
2013-08-07 16:20:00,2,50000,0,0.00,2,2,0,2,50000,50000,0,50000,0,0,0,0,0.00,0.00,0.00,0.00
2013-08-07 16:30:00,2,49987,0,0.00,2,2,0,2,49870,50000,39,50000,0,0,0,0,0.00,0.00,0.00,0.00
2013-08-07 16:40:00,2,50000,0,0.00,2,2,0,2,50000,50000,0,50000,0,0,0,0,0.00,0.00,0.00,0.00
2013-08-07 16:50:00,2,50000,0,0.00,2,2,0,2,50000,50000,0,50000,0,0,0,0,0.00,0.00,0.00,0.00
2013-08-07 17:00:00,2,50000,0,0.00,2,2,0,2,50000,50000,0,50000,0,0,0,0,0.00,0.00,0.00,0.00
2013-08-07 17:10:00,2,50000,0,0.00,2,2,0,2,50000,50000,0,50000,0,0,0,0,0.00,0.00,0.00,0.00
2013-08-07 17:20:00,2,50000,0,0.00,2,2,0,2,50000,50000,0,50000,0,0,0,0,0.00,0.00,0.00,0.00
2013-08-07 17:30:00,2,50000,0,0.00,2,2,0,2,50000,50000,0,50000,0,0,0,0,0.00,0.00,0.00,0.00
2013-08-07 17:40:00,2,50000,0,0.00,2,2,0,2,50000,50000,0,50000,0,0,0,0,0.00,0.00,0.00,0.00
2013-08-07 17:50:00,2,50000,0,0.00,2,2,0,2,50000,50000,0,50000,0,0,0,0,0.00,0.00,0.00,0.00
2013-08-07 18:00:00,2,50000,0,0.00,2,2,0,2,50000,50000,0,50000,0,0,0,0,0.00,0.00,0.00,0.00
2013-08-07 18:10:00,2,50000,0,0.00,2,2,0,2,50000,50000,0,50000,0,0,0,0,0.00,0.00,0.00,0.00
2013-08-07 18:20:00,2,49996,0,0.00,2,2,0,2,49958,50000,13,50000,0,0,0,0,0.00,0.00,0.00,0.00
2013-08-07 18:30:00,2,49920,0,0.00,2,2,0,2,49202,50000,239,50000,0,0,0,0,0.00,0.00,0.00,0.00
2013-08-07 18:40:00,2,49940,0,0.00,2,2,0,2,49609,50000,127,50000,0,0,0,0,0.00,0.00,0.00,0.00
2013-08-07 18:50:00,2,50000,0,0.00,2,2,0,2,50000,50000,0,50000,0,0,0,0,0.00,0.00,0.00,0.00
2013-08-07 19:00:00,2,50000,0,0.00,2,2,0,2,50000,50000,0,50000,0,0,0,0,0.00,0.00,0.00,0.00
2013-08-07 19:10:00,2,50000,0,0.00,2,2,0,2,50000,50000,0,50000,0,0,0,0,0.00,0.00,0.00,0.00
2013-08-07 19:20:00,2,49790,0,0.00,2,2,0,2,48786,50000,427,50000,0,0,0,0,0.00,0.00,0.00,0.00
2013-08-07 19:30:00,2,49988,0,0.00,2,2,0,2,49875,50000,38,50000,0,0,0,0,0.00,0.00,0.00,0.00
2013-08-07 19:40:00,2,49765,0,0.00,2,2,0,2,48055,50000,583,50000,0,0,0,0,0.00,0.00,0.00,0.00
2013-08-07 19:50:00,2,49731,0,0.00,2,2,0,2,48388,50000,551,50000,0,0,0,0,0.00,0.00,0.00,0.00
2013-08-07 20:00:00,2,49356,0,0.00,2,2,0,2,46236,50000,1303,50000,0,0,0,0,0.00,0.00,0.00,0.00
2013-08-07 20:10:00,2,46060,0,0.00,2,2,0,2,39701,50000,3894,47345,0,0,0,0,0.00,0.00,0.00,0.00
2013-08-07 20:20:00,2,42471,0,0.00,2,2,0,2,20224,50000,9005,45400,0,0,0,0,0.00,0.00,0.00,0.00
2013-08-07 20:30:00,2,48065,0,0.00,2,2,0,2,44123,50000,2009,48446,0,0,0,0,0.00,0.00,0.00,0.00
2013-08-07 20:40:00,2,49565,0,0.00,2,2,0,2,47597,50000,764,50000,0,0,0,0,0.00,0.00,0.00,0.00
2013-08-07 20:50:00,2,49705,0,0.00,2,2,0,2,47319,50000,799,50000,0,0,0,0,0.00,0.00,0.00,0.00
2013-08-07 21:00:00,2,49573,0,0.00,2,2,0,2,48017,50000,688,50000,0,0,0,0,0.00,0.00,0.00,0.00
2013-08-07 21:10:00,2,48902,0,0.00,2,2,0,2,46667,50000,1262,49586,0,0,0,0,0.00,0.00,0.00,0.00
2013-08-07 21:20:00,2,47911,0,0.00,2,2,0,2,40321,50000,3214,50000,0,0,0,0,0.00,0.00,0.00,0.00
2013-08-07 21:30:00,2,49581,0,0.00,2,2,0,2,47902,50000,765,50000,0,0,0,0,0.00,0.00,0.00,0.00
2013-08-07 21:40:00,2,49864,0,0.00,2,2,0,2,48637,50000,409,50000,0,0,0,0,0.00,0.00,0.00,0.00
2013-08-07 21:50:00,2,48709,0,0.00,2,2,0,2,42145,50000,2603,50000,0,0,0,0,0.00,0.00,0.00,0.00
2013-08-07 22:00:00,2,45275,0,0.00,2,2,0,2,36758,50000,5210,47096,0,0,0,0,0.00,0.00,0.00,0.00
2013-08-07 22:10:00,2,49052,0,0.00,2,2,0,2,45601,50000,1362,49683,0,0,0,0,0.00,0.00,0.00,0.00
2013-08-07 22:20:00,2,42257,0,0.00,2,2,0,2,36026,50000,4969,43116,0,0,0,0,0.00,0.00,0.00,0.00
2013-08-07 22:30:00,2,44228,0,0.00,2,2,0,2,33575,50000,5565,46471,0,0,0,0,0.00,0.00,0.00,0.00
2013-08-07 22:40:00,2,16161,1,0.00,2,2,0,2,4151,50000,16328,7099,0,10,3,0,0.00,0.00,0.00,0.00
2013-08-07 22:50:00,2,4613,15,0.04,2,2,0,2,3545,5598,752,4586,10,61,15,10,0.00,0.35,0.11,0.00
2013-08-07 23:00:00,2,5143,52,0.35,2,2,0,2,4236,6098,716,5114,51,61,3,51,0.00,1.50,0.44,0.15
2013-08-07 23:10:00,2,14308,15,0.00,2,2,0,2,5688,35233,9603,10114,10,61,15,10,0.00,0.00,0.00,0.00
2013-08-07 23:20:00,2,41627,2,0.00,2,2,0,2,33183,50000,6279,42663,0,10,4,0,0.00,0.00,0.00,0.00
2013-08-07 23:30:00,2,42414,0,0.00,2,2,0,2,31272,50000,6743,45908,0,0,0,0,0.00,0.00,0.00,0.00
2013-08-07 23:40:00,2,39753,0,0.00,2,2,0,2,29612,50000,6505,40541,0,0,0,0,0.00,0.00,0.00,0.00
2013-08-07 23:50:00,2,45266,0,0.00,2,2,0,2,38521,50000,4037,46378,0,0,0,0,0.00,0.00,0.00,0.00
